Inquirer Daily News

Weather

Get conditions and forecasts for any City, State, ZIP code or Country:  
Trenton, NJ
on Wednesday, February 20, 2013

Wednesday
Previous Day Next Day
Daily Summary
 ActualAverageRecord
Temperature
Mean Temperature °F 35°F  
Max Temperature 37°F 43°F 70°F (1930)
Min Temperature 26°F 27°F 6°F (1936)
Degree Days
Heating Degree Days 33 30  
Month to date heating degree days 671 635  
Since 1 July heating degree days 3379 3581  
Cooling Degree Days 0 0  
Month to date cooling degree days 0 0  
Year to date cooling degree days 0 0  
Moisture
Dew Point 12°F   
Average Humidity 49    
Maximum Humidity 59    
Minimum Humidity 39    
Precipitation
Precipitation T in 0.09 in 1.70 in (1921)
Month to date precipitation 1.14 1.58  
Year to date precipitation 3.96 4.74  
Wind
Wind Speed 14 mph   
Max Wind Speed 28 mph   
Max Gust Speed 36 mph   
Visibility 10 miles   
Events     

Key: T is trace of precipitation, MM is missing value
Source: NWS Daily Summary
Time(EST)TemperatureDew PointHumidity Pressure Visibility Wind DirectionWind SpeedGust SpeedPrecipitationEvents Conditions
12:53 AM 35.1°F 23.0°F 61% 29.76 in 10.0 miles NW 10.4 mph - N/A   Clear
1:53 AM 34.0°F 17.1°F 50% 29.78 in 10.0 miles NW 11.5 mph 18.4 mph N/A   Clear
2:53 AM 32.0°F 16.0°F 52% 29.78 in 10.0 miles NW 12.7 mph - N/A   Clear
3:53 AM 32.0°F 17.1°F 54% 29.79 in 10.0 miles WNW 5.8 mph - N/A   Mostly Cloudy
4:53 AM 32.0°F 18.0°F 56% 29.81 in 10.0 miles NW 17.3 mph 27.6 mph N/A   Overcast
5:53 AM 30.0°F 14.0°F 51% 29.83 in 10.0 miles NW 10.4 mph 25.3 mph 0.00 in   Partly Cloudy
7:53 AM 28.9°F 12.9°F 51% 29.89 in 10.0 miles NW 12.7 mph 23.0 mph N/A   Overcast
8:53 AM 28.9°F 15.1°F 56% 29.91 in 10.0 miles NW 16.1 mph 25.3 mph N/A   Mostly Cloudy
9:53 AM 28.9°F 10.9°F 47% 29.91 in 10.0 miles NW 16.1 mph 26.5 mph N/A   Overcast
11:53 AM 30.9°F 10.9°F 43% 29.90 in 10.0 miles NW 16.1 mph 24.2 mph N/A   Scattered Clouds
12:53 PM 30.9°F 9.0°F 40% 29.89 in 10.0 miles WNW 18.4 mph 28.8 mph N/A   Mostly Cloudy
1:53 PM 30.0°F 9.0°F 41% 29.90 in 10.0 miles NW 17.3 mph 26.5 mph N/A   Overcast
3:53 PM 30.0°F 10.9°F 45% 29.93 in 10.0 miles NW 12.7 mph 31.1 mph N/A   Mostly Cloudy
4:53 PM 28.9°F 9.0°F 43% 29.94 in 10.0 miles NW 16.1 mph 32.2 mph N/A   Partly Cloudy
5:53 PM 28.0°F 9.0°F 45% 29.96 in 10.0 miles WNW 16.1 mph 23.0 mph N/A   Mostly Cloudy
6:53 PM 28.0°F 9.0°F 45% 29.98 in 10.0 miles WNW 13.8 mph 21.9 mph N/A   Mostly Cloudy
7:53 PM 27.0°F 10.0°F 49% 29.99 in 10.0 miles NW 11.5 mph 21.9 mph N/A   Partly Cloudy
8:53 PM 27.0°F 9.0°F 47% 30.00 in 10.0 miles NW 12.7 mph - N/A   Mostly Cloudy
9:53 PM 26.1°F 8.1°F 47% 30.00 in 10.0 miles NNW 13.8 mph 21.9 mph N/A   Clear
11:53 PM 25.0°F 9.0°F 51% 30.02 in 10.0 miles NW 16.1 mph 24.2 mph N/A   Mostly Cloudy
Astronomy
Sunrise:06:45 AM (EST) Moon Rise:12:59 PM (EST)
Sunset:05:40 PM (EST) Moon Set:03:04 AM (EST)
Moon Phase
Feb. 20 Feb. 25 Mar. 04 Mar. 11 Mar. 19

Copyright © 2014 The Weather Underground, Inc.